When you browse on this site, cookies collect data to enhance your experience and personalize the content and advertising you see.
Visit our Privacy Policy to learn more. By continuing to use the site, you agree to this use of cookies and data.
EN

Hourly Weather Ngozi

Today, 24 September, Thursday

Time Temperature Precipitation Wind Pressure Humidity
00:00 +17°C° 0 mm 0 mps 618 mmHg 63%
01:00 +16°C° 0 mm 0 mps 617 mmHg 64%
02:00 +16°C° 0 mm 0 mps 617 mmHg 66%
03:00 +16°C° 0 mm 0 mps 617 mmHg 67%
04:00 +15°C° 0 mm 0 mps 617 mmHg 67%
05:00 +15°C° 0 mm 0 mps 617 mmHg 68%
06:00 +19°C° 0 mm 1 mps 618 mmHg 62%
07:00 +20°C° 0 mm 2 mps 620 mmHg 55%
08:00 +22°C° 0 mm 3 mps 621 mmHg 51%
09:00 +25°C° 0 mm 3 mps 621 mmHg 45%
10:00 +27°C° 0 mm 3 mps 621 mmHg 39%
11:00 +29°C° 0 mm 3 mps 622 mmHg 33%
12:00 +28°C° 0 mm 3 mps 621 mmHg 34%
13:00 +28°C° 0 mm 3 mps 619 mmHg 35%
14:00 +27°C° 0 mm 3 mps 619 mmHg 39%
15:00 +27°C° 0 mm 2 mps 619 mmHg 39%
16:00 +27°C° 0 mm 2 mps 619 mmHg 39%
17:00 +26°C° 0 mm 2 mps 619 mmHg 39%
18:00 +25°C° 0 mm 1 mps 618 mmHg 44%
19:00 +23°C° 0 mm 1 mps 618 mmHg 49%
20:00 +19°C° 0 mm 0 mps 618 mmHg 55%
21:00 +18°C° 0 mm 0 mps 618 mmHg 57%
22:00 +18°C° 0 mm 0 mps 618 mmHg 58%
23:00 +19°C° 0 mm 1 mps 618 mmHg 60%

Tomorrow, 25 September, Friday

Time Temperature Precipitation Wind Pressure Humidity
00:00 +19°C° 0 mm 1 mps 618 mmHg 62%
01:00 +18°C° 0 mm 1 mps 617 mmHg 65%
02:00 +18°C° 0 mm 1 mps 617 mmHg 67%
03:00 +18°C° 0 mm 1 mps 617 mmHg 68%
04:00 +16°C° 0 mm 1 mps 617 mmHg 68%
05:00 +16°C° 0 mm 1 mps 617 mmHg 69%
06:00 +19°C° 0 mm 1 mps 618 mmHg 64%
07:00 +20°C° 0 mm 1 mps 619 mmHg 58%
08:00 +22°C° 0 mm 1 mps 620 mmHg 53%
09:00 +24°C° 0 mm 2 mps 621 mmHg 47%
10:00 +27°C° 0 mm 2 mps 622 mmHg 40%
11:00 +29°C° 0 mm 2 mps 622 mmHg 34%
12:00 +29°C° 0 mm 2 mps 621 mmHg 34%
13:00 +29°C° 0 mm 2 mps 620 mmHg 33%
14:00 +28°C° 0 mm 2 mps 619 mmHg 33%
15:00 +27°C° 0 mm 2 mps 619 mmHg 37%
16:00 +26°C° 0 mm 2 mps 618 mmHg 40%
17:00 +25°C° 0 mm 1 mps 618 mmHg 44%
18:00 +24°C° 0 mm 1 mps 618 mmHg 48%
19:00 +23°C° 0 mm 1 mps 618 mmHg 53%
20:00 +21°C° 0 mm 1 mps 618 mmHg 57%
21:00 +21°C° 0 mm 1 mps 618 mmHg 60%
22:00 +20°C° 0 mm 1 mps 618 mmHg 62%
23:00 +17°C° 0 mm 0 mps 618 mmHg 65%

Day after tomorrow, 26 September, Saturday

Time Temperature Precipitation Wind Pressure Humidity
00:00 +18°C° 0 mm 1 mps 617 mmHg 67%
01:00 +18°C° 0 mm 1 mps 617 mmHg 70%
02:00 +16°C° 0 mm 1 mps 616 mmHg 72%
03:00 +16°C° 0 mm 1 mps 616 mmHg 74%
04:00 +16°C° 0 mm 1 mps 616 mmHg 76%
05:00 +15°C° 0 mm 1 mps 616 mmHg 78%
06:00 +19°C° 0 mm 1 mps 618 mmHg 68%
07:00 +22°C° 0 mm 1 mps 619 mmHg 57%
08:00 +23°C° 0 mm 0 mps 621 mmHg 47%
09:00 +27°C° 0 mm 1 mps 621 mmHg 40%
10:00 +30°C° 0 mm 1 mps 621 mmHg 32%
11:00 +32°C° 0 mm 2 mps 622 mmHg 25%
12:00 +31°C° 0 mm 2 mps 620 mmHg 27%
13:00 +30°C° 0 mm 2 mps 619 mmHg 29%
14:00 +29°C° 0 mm 2 mps 618 mmHg 31%
15:00 +28°C° 0 mm 2 mps 618 mmHg 34%
16:00 +27°C° 0 mm 2 mps 617 mmHg 37%
17:00 +26°C° 0 mm 1 mps 617 mmHg 40%
18:00 +24°C° 0.1 mm 1 mps 617 mmHg 47%
19:00 +23°C° 0.1 mm 1 mps 617 mmHg 54%
20:00 +21°C° 0.1 mm 1 mps 617 mmHg 61%
21:00 +21°C° 0 mm 1 mps 617 mmHg 65%
22:00 +20°C° 0 mm 1 mps 617 mmHg 70%
23:00 +17°C° 0 mm 0 mps 617 mmHg 74%

27 September, Sunday

Time Temperature Precipitation Wind Pressure Humidity
00:00 +16°C° 0 mm 0 mps 617 mmHg 77%
01:00 +16°C° 0 mm 0 mps 616 mmHg 79%
02:00 +15°C° 0 mm 0 mps 616 mmHg 82%
03:00 +15°C° 0 mm 0 mps 616 mmHg 82%
04:00 +15°C° 0 mm 0 mps 616 mmHg 82%
05:00 +15°C° 0 mm 0 mps 616 mmHg 83%
06:00 +18°C° 0 mm 0 mps 617 mmHg 72%
07:00 +20°C° 0 mm 0 mps 619 mmHg 61%
08:00 +23°C° 0 mm 0 mps 620 mmHg 50%
09:00 +27°C° 0 mm 1 mps 620 mmHg 43%
10:00 +29°C° 0 mm 1 mps 621 mmHg 37%
11:00 +31°C° 0 mm 2 mps 621 mmHg 30%
12:00 +30°C° 0 mm 2 mps 620 mmHg 33%
13:00 +29°C° 0 mm 3 mps 619 mmHg 36%
14:00 +28°C° 0 mm 3 mps 618 mmHg 38%
15:00 +27°C° 0.1 mm 3 mps 617 mmHg 42%
16:00 +26°C° 0.1 mm 2 mps 617 mmHg 46%
17:00 +25°C° 0.1 mm 1 mps 617 mmHg 50%
18:00 +23°C° 0.5 mm 1 mps 617 mmHg 58%
19:00 +20°C° 0.5 mm 0 mps 617 mmHg 66%
20:00 +18°C° 0.5 mm 0 mps 617 mmHg 74%
21:00 +18°C° 0.5 mm 0 mps 617 mmHg 77%
22:00 +17°C° 0.5 mm 0 mps 617 mmHg 81%
23:00 +16°C° 0.5 mm 0 mps 617 mmHg 84%

28 September, Monday

Time Temperature Precipitation Wind Pressure Humidity
00:00 +16°C° 0 mm 0 mps 617 mmHg 84%
01:00 +16°C° 0 mm 0 mps 617 mmHg 84%
02:00 +16°C° 0 mm 0 mps 616 mmHg 84%
03:00 +16°C° 0 mm 0 mps 616 mmHg 85%
04:00 +15°C° 0 mm 0 mps 616 mmHg 86%
05:00 +15°C° 0 mm 0 mps 616 mmHg 87%
06:00 +17°C° 0.1 mm 0 mps 618 mmHg 80%
07:00 +19°C° 0.1 mm 0 mps 619 mmHg 73%
08:00 +21°C° 0.1 mm 0 mps 620 mmHg 66%
09:00 +24°C° 0.7 mm 1 mps 620 mmHg 60%
10:00 +25°C° 0.7 mm 1 mps 620 mmHg 54%
11:00 +26°C° 0.7 mm 2 mps 621 mmHg 48%
12:00 +27°C° 0.4 mm 2 mps 620 mmHg 45%
13:00 +28°C° 0.4 mm 2 mps 619 mmHg 42%
14:00 +28°C° 0.4 mm 2 mps 619 mmHg 39%
15:00 +26°C° 0.6 mm 2 mps 618 mmHg 51%
16:00 +23°C° 0.6 mm 2 mps 617 mmHg 63%
17:00 +21°C° 0.6 mm 1 mps 616 mmHg 75%
18:00 +20°C° 0.8 mm 1 mps 616 mmHg 79%
19:00 +19°C° 0.8 mm 1 mps 617 mmHg 83%
20:00 +19°C° 0.8 mm 1 mps 617 mmHg 88%
21:00 +18°C° 0.7 mm 1 mps 617 mmHg 88%
22:00 +16°C° 0.7 mm 0 mps 617 mmHg 89%
23:00 +15°C° 0.7 mm 0 mps 617 mmHg 90%

29 September, Tuesday

Time Temperature Precipitation Wind Pressure Humidity
00:00 +15°C° 0.1 mm 0 mps 617 mmHg 90%
01:00 +15°C° 0.1 mm 0 mps 617 mmHg 90%
02:00 +15°C° 0.1 mm 0 mps 616 mmHg 90%
03:00 +15°C° 0 mm 0 mps 616 mmHg 90%
04:00 +14°C° 0 mm 0 mps 617 mmHg 90%
05:00 +14°C° 0 mm 0 mps 617 mmHg 90%
06:00 +16°C° 0 mm 0 mps 618 mmHg 83%
07:00 +18°C° 0 mm 0 mps 619 mmHg 76%
08:00 +20°C° 0 mm 0 mps 620 mmHg 70%
09:00 +23°C° 0.5 mm 1 mps 620 mmHg 63%
10:00 +25°C° 0.5 mm 2 mps 620 mmHg 55%
11:00 +27°C° 0.5 mm 2 mps 621 mmHg 48%
12:00 +27°C° 0.4 mm 2 mps 620 mmHg 48%
13:00 +27°C° 0.4 mm 2 mps 619 mmHg 47%
14:00 +27°C° 0.4 mm 2 mps 618 mmHg 47%
15:00 +25°C° 0.7 mm 1 mps 618 mmHg 56%
16:00 +23°C° 0.7 mm 1 mps 617 mmHg 66%
17:00 +22°C° 0.7 mm 1 mps 616 mmHg 75%
18:00 +21°C° 1 mm 1 mps 616 mmHg 79%
19:00 +20°C° 1 mm 1 mps 617 mmHg 84%
20:00 +19°C° 1 mm 1 mps 617 mmHg 88%
21:00 +18°C° 0.7 mm 1 mps 617 mmHg 88%
22:00 +18°C° 0.7 mm 1 mps 617 mmHg 89%
23:00 +16°C° 0.7 mm 0 mps 617 mmHg 89%
Show more